sat.trackr.live / text

‹ back to catalog

2023-048A

NORAD 56157 · 2023-048A

PAYLOAD ACTIVE UNKNOWN

§ Identity

Operator
Country
PRC
Launch date
2023-03-31
Launch site
JSC
Launch vehicle
Mass (kg)
RCS (m²)

External: N2YO · Heavens-Above · Gunter

§ Orbital elements

Epoch: 2026-05-25T04:40:16.838976Z

Period
107.03 min
Inclination
63.3997°
Eccentricity
0.0065190
Mean motion
13.45389203 rev/d
Perigee alt
1,040.6 km
Apogee alt
1,138.0 km
Semi-major
7,467.4 km
B*
3.3270e-5
RAAN
157.4086°
Arg perigee
354.9692°
Mean anomaly
5.0672°
Rev number
15,484

§ Raw data

2023-048A1 56157U 23048A   26145.19463934 -.00000070  00000+0  33270-4 0  99942 56157  63.3997 157.4086 0065190 354.9692   5.0672 13.45389203154843

JSON: /api/v1/satellites/56157 · /tle

For live sub-satellite position, see the globe view (requires WebGL).

§ Visibility from observer

Set your observer location to see the next 7 days of passes ≥ 10°. The values pass through the URL so the page stays shareable.

No JS? Fill the form by hand. The geolocation button needs JavaScript.